Weather in Somerset West

South Africa     34°05′28″S   18°50′17″E
temp.,
°C
wind,
m/s
gust,
m/s
humid.,
%
clouds,
%
prec.,
mm/h
press.,
hPa
HPBL,
m
16 may, sun
sun1623:00+14s468499 0.1 1014232
02:00+13s47820 0.1 1015152
05:00+12s347240 0.0 101670
08:00+12sse117077 0.0 101812
11:00+15ssw235469 0.0 1019936
14:00+15sw225473 0.1 1018856
17:00+15s336236 0.1 1019170
20:00+12ese11755 0.2 102110
17 may, mon
mon1723:00+10ene11815 0.0 102210
02:00+9ene11820 0.0 102210
05:00+9ne22830 0.0 102214
08:00+10ne22800 0.0 102319
11:00+15nnw11560 0.0 1023669
14:00+17ssw215312 0.0 10211284
17:00+15s33670 0.0 1020232
20:00+11sse228444 0.0 102111
18 may, tue
tue1823:00+11se1185100 0.0 102110
02:00+10ne1181100 0.0 101910
05:00+9ene0077100 0.0 101810
08:00+10nne1165100 0.0 101810
11:00+17nnw234212 0.0 1017302
14:00+22nnw353012 0.0 1014867
17:00+18wsw2249100 0.0 101418
20:00+13n1156100 0.0 101510
19 may, wed
wed1923:00+12nne335479 0.0 101528
02:00+12nne3352100 0.0 101431
05:00+12n3452100 0.0 101338
08:00+11n455687 0.0 101359
11:00+18n574191 0.0 1013507
14:00+20nnw68435 0.0 10111312
17:00+18nw6105755 0.0 1011454
20:00+14n613665 0.0 1012342
20 may, thu
thu2023:00+13nne7156957 0.0 1012447
02:00+14n81671100 0.4 1010876
05:00+14n91685100 1.9 10101042
08:00+15nnw101687100 4.1 10111002
11:00+17nw11167531 3.3 10121481
14:00+16wnw10136874 6.2 10131493
17:00+15wnw610617 1.2 1015702
20:00+11nnw478017 2.1 1018106